Skip Page Navigation
NASA JPL Caltech
NASA Logo - Jet Propulsion Laboratory + View the NASA Portal
+ Near-Earth Object (NEO) Program
Search JPL
JPL Home Earth Solar System Stars & Galaxies Technology
JPL Solar System Dynamics
BODIES ORBITS EPHEMERIDES TOOLS PHYSICAL DATA DISCOVERY FAQ SITE MAP
JPL Small-Body Database Browser
Search: [ help ]  
12626 Timmerman (1116 T-1)
Classification: Main-belt Asteroid          SPK-ID: 2012626
Ephemeris | Orbit Diagram | Orbital Elements | Physical Parameters | Discovery Circumstances ]

[ show orbit diagram ]
Orbital Elements at Epoch 2456400.5 (2013-Apr-18.0) TDB
Reference: MPO250337 (heliocentric ecliptic J2000)
 Element Value Uncertainty (1-sigma)   Units 
e 0.1062434 n/a  
a 2.6858086 n/a AU
q 2.4004592 n/a AU
i 1.66399 n/a deg
node 259.21788 n/a deg
peri 126.72765 n/a deg
M 350.86554 n/a deg
tp 2456441.2935395
(2013-May-28.79353950)
n/a JED
period 1607.7222113
4.40
n/a
n/a
d
yr
n 0.22391928 n/a deg/d
Q 2.9711580 n/a AU
  Orbit Determination Parameters
   # obs. used (total)      612  
   first obs. used      1971-??-??  
   last obs. used      2012-12-08  
   # oppositions      15  
   planetary ephem.      DE403  
   condition code      0  
   fit RMS      0.57  
   data source      MPC:mpn  
   producer      MPCLINUX  

Additional Information
 T_jup = 3.366 

Ephemeris | Orbit Diagram | Orbital Elements | Physical Parameters | Discovery Circumstances ]

Physical Parameter Table
Parameter Symbol Value Units Sigma Reference Notes
absolute magnitude H 14.4 mag n/a PDS3 (MPC 36776)  

12626 Timmerman           Discovered 1971 Mar. 25 by C. J. van Houten and I. van Houten-Groeneveld on Palomar Schmidt plates taken by T. Gehrels.
Dutch poetess Petronella Johanna de Timmerman (1724-1786) was educated in astronomy and mathematics at the observatory of Jan de Munck in Middelburg. In 1769 she married the Utrecht astronomer Jan Frederik Hennert and assisted him in his work. The name was suggested by R. H. van Gent.
NOTE: some special characters may not display properly (any characters within {} are an attempt to place the proper accent above a character)
Reference: 20090409/MPCPages.arcLast Updated: 2009-04-10

Alternate Designations
 1116 T-1 = 1995 WL22 = 1997 CG5 = 1998 KV21 = 1999 RP130 
Ephemeris | Orbit Diagram | Orbital Elements | Physical Parameters | Discovery Circumstances ]
ABOUT SSD CREDITS/AWARDS PRIVACY/COPYRIGHT GLOSSARY LINKS
FirstGov 2013-May-24 06:10 UT
(server date/time)  
NASA Home Page
Site Manager:   Donald K. Yeomans
Webmaster  Alan B. Chamberlin